Tracking 19149 objects as of 20-Apr-2018
HD Live streaming from Space Station
objects crossing your sky now

FREGAT R/B

Track FREGAT R/B now!
10-day predictions


NORAD ID: 40083
Int'l Code: 2014-038E
Perigee: 7,667.4 km
Apogee: 7,696.8 km
Inclination: 0.1 °
Period: 276.3 minutes
Semi major axis: 14053 km
RCS: Unknown
Launch date: July 10, 2014
Source: Commonwealth of Independent States (former USSR) (CIS)
Launch site: FRENCH GUIANA (FRGUI)

Note: This is a ROCKET BODY
aabbcc
Your satellite tracking list
Your tracking list is empty




NASA's NSSDC Master Catalog

Two Line Element Set (TLE):
1 40083U 14038E   18109.68794459 -.00000017 +00000-0 +00000-0 0  9991
2 40083 000.1476 003.4357 0010448 290.5853 065.8711 05.21126783071861
Source of the keplerian elements: AFSPC